DW2217 Weather Reports


time (UTC)temp
C
wind
direction
speed
KPH
gust
KPH
rain 1hr
cm
rain 24hr
cm
rain mn
cm
humidity
%
barometer
mb
20260508014811 8 320 4.8 4.8 0.00 0.03 0.03 54 1006.6
20260508014308 8 324 3.2 4.8 0.00 0.03 0.03 50 1006.6
20260508013803 8 328 3.2 4.8 0.00 0.03 0.03 48 1006.7
20260508013300 8 329 3.2 3.2 0.00 0.03 0.03 45 1006.5
20260508012758 8 330 3.2 3.2 0.00 0.03 0.03 45 1006.6
20260508012255 9 329 3.2 3.2 0.00 0.03 0.03 44 1006.6
20260508011753 9 327 4.8 4.8 0.00 0.03 0.03 44 1006.4
20260508011250 9 347 3.2 3.2 0.00 0.03 0.03 45 1006.4
20260508010747 9 10 1.6 4.8 0.00 0.03 0.03 46 1006.1
20260508010244 9 305 4.8 4.8 0.00 0.03 0.03 45 1006.1
20260508005741 9 326 3.2 4.8 0.00 0.03 0.03 45 1006.1
20260508005238 10 324 3.2 4.8 0.00 0.03 0.03 45 1005.9
20260508004733 10 337 4.8 4.8 0.00 0.03 0.03 44 1005.8
20260508004230 10 328 4.8 4.8 0.00 0.03 0.03 44 1005.9
20260508003727 10 301 4.8 8.0 0.00 0.03 0.03 45 1005.8
20260508003224 10 324 4.8 4.8 0.00 0.03 0.03 44 1005.8
20260508002721 10 338 3.2 4.8 0.00 0.03 0.03 44 1005.6
20260508002218 10 339 1.6 3.2 0.00 0.03 0.03 43 1005.4
20260508001714 11 343 4.8 4.8 0.00 0.03 0.03 41 1005.5
20260508001209 11 348 3.2 3.2 0.00 0.03 0.03 41 1005.3
20260508000706 11 335 3.2 11.3 0.00 0.03 0.03 40 1005.2
20260508000204 11 310 4.8 8.0 0.00 0.03 0.03 38 1005.1
20260507235659 11 307 4.8 11.3 0.00 0.03 0.03 38 1005.3
20260507235157 11 318 6.4 8.0 0.00 0.03 0.03 38 1005.2
20260507234654 12 347 3.2 8.0 0.00 0.03 0.03 37 1005.1
20260507234150 12 333 6.4 8.0 0.00 0.03 0.03 35 1005.1
20260507233647 12 282 6.4 8.0 0.00 0.03 0.03 35 1004.9
20260507233145 12 336 6.4 16.1 0.00 0.03 0.03 33 1004.9
20260507232642 12 287 8.0 14.5 0.00 0.03 0.03 33 1004.9
20260507232139 12 325 4.8 11.3 0.00 0.03 0.03 34 1004.9
20260507231635 13 285 11.3 14.5 0.00 0.03 0.03 32 1004.9
20260507231133 13 306 4.8 14.5 0.00 0.03 0.03 32 1004.7
20260507230629 13 281 14.5 22.5 0.00 0.03 0.03 31 1004.4
20260507230127 13 323 16.1 22.5 0.00 0.03 0.03 31 1004.3
20260507225626 13 308 14.5 19.3 0.00 0.03 0.03 30 1004.5
20260507225123 13 310 12.9 22.5 0.00 0.03 0.03 30 1004.4
20260507224618 13 291 11.3 16.1 0.00 0.03 0.03 30 1004.2
20260507224115 13 304 11.3 16.1 0.00 0.03 0.03 30 1004.1
20260507223611 13 307 6.4 14.5 0.00 0.03 0.03 32 1004.1
20260507223108 13 320 11.3 14.5 0.00 0.03 0.03 32 1003.9
20260507222606 13 275 17.7 22.5 0.00 0.03 0.03 32 1003.9
20260507222102 13 281 6.4 16.1 0.00 0.03 0.03 32 1003.9
20260507221558 13 319 6.4 11.3 0.00 0.03 0.03 33 1003.9
20260507221055 13 307 4.8 8.0 0.00 0.03 0.03 36 1003.9
20260507220552 13 316 8.0 11.3 0.00 0.03 0.03 35 1003.8
20260507220049 13 275 8.0 22.5 0.00 0.03 0.03 34 1003.9
20260507215546 13 311 11.3 16.1 0.00 0.03 0.03 34 1003.8
20260507215044 13 311 6.4 16.1 0.00 0.03 0.03 33 1003.8
20260507214541 15 312 8.0 11.3 0.00 0.03 0.03 33 1004.0
20260507214036 14 277 11.3 14.5 0.00 0.03 0.03 32 1003.8
20260507213533 14 338 9.7 11.3 0.00 0.03 0.03 32 1003.8
20260507213030 14 297 9.7 19.3 0.00 0.03 0.03 32 1003.8
20260507212526 15 282 8.0 19.3 0.00 0.03 0.03 33 1003.6
20260507212023 15 272 9.7 11.3 0.00 0.03 0.03 33 1003.8
20260507211520 15 278 8.0 19.3 0.00 0.03 0.03 31 1003.8
20260507211016 15 259 8.0 14.5 0.00 0.03 0.03 31 1003.8
20260507210513 14 269 9.7 11.3 0.00 0.03 0.03 33 1003.6
20260507210010 13 329 8.0 19.3 0.00 0.03 0.03 32 1003.8
20260507205507 14 314 8.0 14.5 0.00 0.03 0.03 33 1003.6
20260507205003 14 297 8.0 14.5 0.00 0.03 0.03 32 1003.6
20260507204459 14 255 11.3 19.3 0.00 0.03 0.03 32 1003.6
20260507203957 15 270 12.9 14.5 0.00 0.03 0.03 36 1003.4
20260507203455 14 269 8.0 11.3 0.00 0.03 0.03 34 1003.5
20260507202951 15 237 14.5 19.3 0.00 0.03 0.03 32 1003.6
20260507202447 15 288 9.7 14.5 0.00 0.03 0.03 32 1003.7
20260507201943 15 275 17.7 22.5 0.00 0.03 0.03 32 1003.5
20260507201438 15 281 6.4 14.5 0.00 0.03 0.03 31 1003.7
20260507200936 15 277 11.3 14.5 0.00 0.03 0.03 34 1003.4
20260507200431 15 271 11.3 19.3 0.00 0.03 0.03 31 1003.6
20260507195927 15 269 9.7 16.1 0.00 0.03 0.03 34 1003.6
20260507195425 15 231 14.5 22.5 0.00 0.03 0.03 31 1003.4
20260507194922 15 276 9.7 11.3 0.00 0.03 0.03 34 1003.5
20260507194418 15 249 12.9 14.5 0.00 0.03 0.03 35 1003.6
20260507193915 14 319 4.8 14.5 0.00 0.03 0.03 34 1003.5
20260507193412 15 286 11.3 22.5 0.00 0.03 0.03 33 1003.7
20260507192908 15 293 12.9 16.1 0.00 0.03 0.03 33 1003.9
20260507192404 15 343 6.4 16.1 0.00 0.03 0.03 33 1003.8
20260507191901 15 312 11.3 14.5 0.00 0.03 0.03 33 1003.9
20260507191358 15 343 8.0 11.3 0.00 0.03 0.03 32 1003.9
20260507190854 15 331 14.5 16.1 0.00 0.03 0.03 33 1004.1
20260507190352 14 296 9.7 14.5 0.00 0.03 0.03 33 1004.1
20260507185851 14 296 12.9 27.4 0.00 0.03 0.03 33 1004.1
20260507185348 15 311 11.3 19.3 0.00 0.03 0.03 33 1003.9
20260507184845 15 266 14.5 16.1 0.00 0.03 0.03 33 1003.9
20260507184343 15 267 14.5 19.3 0.00 0.03 0.03 36 1004.0
20260507183839 15 310 12.9 24.1 0.00 0.03 0.03 34 1004.0
20260507183336 15 267 20.9 24.1 0.00 0.03 0.03 33 1003.9
20260507182834 15 271 12.9 27.4 0.00 0.03 0.03 33 1003.9
20260507182329 15 292 14.5 19.3 0.00 0.03 0.03 37 1004.2
20260507181826 15 266 19.3 27.4 0.00 0.03 0.03 36 1004.3
20260507181322 15 270 11.3 16.1 0.00 0.03 0.03 39 1004.2
20260507180819 14 307 11.3 22.5 0.00 0.03 0.03 36 1004.1
20260507180316 14 287 19.3 22.5 0.00 0.03 0.03 37 1004.2
20260507175811 13 270 16.1 19.3 0.00 0.03 0.03 35 1004.2
20260507175309 13 271 20.9 30.6 0.00 0.03 0.03 37 1004.1
20260507174806 14 241 11.3 16.1 0.00 0.03 0.03 49 1004.3
20260507174304 13 256 14.5 19.3 0.00 0.03 0.03 50 1004.2
20260507173801 12 279 20.9 24.1 0.00 0.03 0.03 49 1004.4
20260507173258 13 267 14.5 22.5 0.00 0.03 0.03 49 1004.5
20260507172754 13 265 20.9 24.1 0.00 0.03 0.03 49 1004.5
20260507172251 13 306 8.0 22.5 0.00 0.03 0.03 54 1004.6
20260507171746 13 283 17.7 30.6 0.00 0.03 0.03 54 1004.2
20260507171244 13 277 11.3 19.3 0.00 0.03 0.03 56 1004.5
20260507170741 12 275 20.9 27.4 0.00 0.03 0.03 54 1004.4
20260507170237 12 271 17.7 33.8 0.00 0.03 0.03 54 1004.4
20260507165733 13 270 16.1 24.1 0.00 0.03 0.03 53 1004.4
20260507165229 13 255 14.5 16.1 0.00 0.03 0.03 52 1004.4
20260507164726 14 242 17.7 22.5 0.00 0.03 0.03 51 1004.4
20260507164223 13 275 11.3 11.3 0.00 0.03 0.03 53 1004.6
20260507163720 13 270 14.5 22.5 0.00 0.03 0.03 51 1004.5
20260507163218 13 274 11.3 14.5 0.00 0.03 0.03 52 1004.6
20260507162713 13 273 16.1 22.5 0.00 0.03 0.03 53 1004.6
20260507162210 13 255 12.9 16.1 0.00 0.03 0.03 56 1004.7
20260507161706 13 237 11.3 19.3 0.00 0.03 0.03 54 1004.7
20260507161203 13 306 8.0 14.5 0.00 0.03 0.03 59 1004.7
20260507160659 14 300 12.9 14.5 0.00 0.03 0.03 54 1004.8
20260507160156 13 257 8.0 14.5 0.00 0.03 0.03 56 1004.7
20260507155651 13 280 14.5 19.3 0.00 0.03 0.03 55 1004.9
20260507155142 13 288 8.0 11.3 0.00 0.03 0.03 55 1005.0
20260507154639 13 228 8.0 11.3 0.00 0.03 0.03 58 1005.0
20260507154137 13 219 9.7 16.1 0.00 0.03 0.03 55 1005.1
20260507153633 13 274 14.5 16.1 0.00 0.03 0.03 58 1005.1
20260507153129 12 288 8.0 14.5 0.00 0.03 0.03 60 1005.1
20260507152626 12 314 9.7 14.5 0.00 0.03 0.03 55 1005.2
20260507152122 13 247 8.0 16.1 0.00 0.03 0.03 54 1005.2
20260507151618 13 276 12.9 24.1 0.00 0.03 0.03 52 1005.3
20260507151115 13 277 9.7 14.5 0.00 0.03 0.03 52 1005.1
20260507150612 13 240 8.0 11.3 0.00 0.03 0.03 53 1005.1
20260507150108 13 261 8.0 16.1 0.00 0.03 0.03 52 1005.3
20260507145604 13 273 4.8 11.3 0.00 0.03 0.03 54 1005.1
20260507145102 13 270 11.3 22.5 0.00 0.03 0.03 53 1005.2
20260507144557 13 290 11.3 14.5 0.00 0.03 0.03 58 1005.3
20260507144056 13 335 8.0 11.3 0.00 0.03 0.03 54 1005.2
20260507143552 13 300 4.8 11.3 0.00 0.03 0.03 58 1005.1
20260507143050 12 288 6.4 14.5 0.00 0.03 0.03 57 1005.2
20260507142549 12 229 8.0 11.3 0.00 0.03 0.03 56 1005.2
20260507142047 12 279 8.0 8.0 0.00 0.03 0.03 61 1005.2
20260507141543 12 271 6.4 8.0 0.00 0.03 0.03 59 1005.6
20260507141040 12 318 9.7 14.5 0.00 0.03 0.03 57 1005.5
20260507140537 12 267 4.8 8.0 0.00 0.03 0.03 63 1005.4
20260507140034 12 326 8.0 11.3 0.00 0.03 0.03 62 1005.8
20260507135531 12 307 4.8 14.5 0.00 0.03 0.03 64 1005.6
20260507135028 11 293 3.2 4.8 0.00 0.03 0.03 72 1005.7
20260507134525 11 270 4.8 8.0 0.00 0.03 0.03 72 1005.8
20260507134020 11 245 4.8 8.0 0.00 0.03 0.03 71 1005.7
20260507133517 11 269 4.8 8.0 0.00 0.03 0.03 68 1005.7
20260507133015 11 332 3.2 8.0 0.00 0.03 0.03 70 1005.8
20260507132511 10 267 4.8 8.0 0.00 0.03 0.03 73 1005.8
20260507132007 10 286 11.3 14.5 0.00 0.03 0.03 70 1006.0
20260507131504 10 278 9.7 14.5 0.00 0.03 0.03 72 1005.9
20260507131002 10 260 6.4 11.3 0.00 0.03 0.03 76 1006.0
20260507130459 10 272 6.4 8.0 0.00 0.03 0.03 78 1005.9
20260507125957 10 268 6.4 8.0 0.00 0.03 0.03 78 1006.0
20260507125455 10 286 4.8 8.0 0.00 0.03 0.03 80 1006.0
20260507124952 10 289 3.2 4.8 0.00 0.03 0.03 79 1005.9
20260507124448 10 299 3.2 4.8 0.00 0.03 0.03 80 1005.9
20260507123946 10 13 3.2 3.2 0.00 0.03 0.03 77 1006.2
20260507123444 10 17 3.2 3.2 0.00 0.03 0.03 76 1005.9
20260507122940 10 10 0.0 3.2 0.00 0.03 0.03 76 1006.0
20260507122435 10 356 3.2 4.8 0.00 0.03 0.03 77 1006.2
20260507121931 9 334 4.8 4.8 0.00 0.03 0.03 76 1006.0
20260507121427 9 341 4.8 4.8 0.00 0.03 0.03 78 1006.2
20260507120924 9 11 1.6 4.8 0.00 0.03 0.03 78 1006.1
20260507120420 9 4 3.2 4.8 0.00 0.03 0.03 77 1006.2
20260507115917 9 4 4.8 4.8 0.00 0.03 0.03 78 1006.3
20260507115413 9 5 3.2 4.8 0.00 0.03 0.03 78 1006.2
20260507114908 8 4 3.2 3.2 0.00 0.03 0.03 78 1006.0
20260507114406 8 329 4.8 4.8 0.00 0.03 0.03 79 1006.3
20260507113903 8 331 4.8 4.8 0.00 0.03 0.03 81 1006.1
20260507113400 8 322 3.2 4.8 0.00 0.03 0.03 81 1006.0
20260507112857 7 321 1.6 4.8 0.00 0.03 0.03 83 1006.1
20260507112354 7 321 3.2 3.2 0.00 0.03 0.03 84 1006.2
20260507111852 7 321 1.6 3.2 0.00 0.03 0.03 89 1006.0
20260507111348 7 321 0.0 0.0 0.00 0.03 0.03 93 1005.9
20260507110844 6 321 1.6 3.2 0.00 0.03 0.03 94 1006.3
20260507110341 6 321 1.6 3.2 0.00 0.03 0.03 95 1006.2
20260507105838 6 320 3.2 3.2 0.00 0.03 0.03 96 1006.5
20260507105334 6 320 3.2 3.2 0.00 0.03 0.03 96 1006.5
20260507104831 6 320 1.6 3.2 0.00 0.03 0.03 96 1006.4
20260507104328 6 319 0.0 3.2 0.00 0.03 0.03 96 1006.7
20260507103824 6 319 3.2 3.2 0.00 0.03 0.03 94 1006.5
20260507103320 6 319 3.2 3.2 0.00 0.03 0.03 94 1006.2
20260507102817 6 319 3.2 3.2 0.00 0.03 0.03 95 1006.2
20260507102314 6 320 1.6 3.2 0.00 0.03 0.03 96 1006.2
20260507101810 6 319 1.6 3.2 0.00 0.03 0.03 94 1006.5
20260507101310 6 319 3.2 3.2 0.00 0.03 0.03 91 1006.5
20260507100808 6 316 3.2 4.8 0.00 0.03 0.03 91 1006.4
20260507100306 6 319 3.2 4.8 0.00 0.03 0.03 91 1006.4
20260507095804 6 317 3.2 4.8 0.00 0.03 0.03 92 1006.1
20260507095300 6 327 3.2 4.8 0.00 0.03 0.03 94 1006.4
20260507094757 6 328 3.2 4.8 0.00 0.03 0.03 96 1006.2
20260507094254 6 332 3.2 4.8 0.00 0.03 0.03 96 1006.1
20260507093750 6 347 3.2 4.8 0.00 0.03 0.03 96 1005.8
20260507093249 6 347 3.2 3.2 0.00 0.03 0.03 95 1005.6
20260507092746 6 18 3.2 4.8 0.00 0.03 0.03 94 1005.5
20260507092242 6 23 3.2 3.2 0.00 0.03 0.03 94 1005.4
20260507091739 6 23 3.2 3.2 0.00 0.03 0.03 94 1005.6
20260507091235 6 20 0.0 3.2 0.00 0.03 0.03 95 1005.7
20260507090731 6 20 0.0 3.2 0.00 0.03 0.03 95 1005.8
20260507090228 6 20 3.2 3.2 0.00 0.03 0.03 95 1005.8
20260507085725 6 21 3.2 3.2 0.00 0.03 0.03 95 1005.7
20260507085222 6 24 3.2 4.8 0.00 0.03 0.03 96 1006.0
20260507084719 6 43 0.0 3.2 0.00 0.03 0.03 96 1005.5
20260507084215 7 34 3.2 3.2 0.00 0.03 0.03 96 1005.7
20260507083713 6 347 0.0 3.2 0.00 0.03 0.03 96 1006.1
20260507083209 7 346 1.6 4.8 0.00 0.03 0.03 96 1005.9
20260507082705 7 340 3.2 4.8 0.00 0.03 0.03 96 1005.8
20260507082156 7 328 3.2 4.8 0.00 0.03 0.03 96 1005.7
20260507081653 7 298 1.6 3.2 0.00 0.03 0.03 96 1005.8
20260507081149 7 332 3.2 4.8 0.00 0.03 0.03 95 1005.7
20260507080646 7 349 3.2 4.8 0.00 0.03 0.03 96 1005.6
20260507080142 7 349 3.2 4.8 0.00 0.03 0.03 95 1005.3
20260507075637 7 355 1.6 3.2 0.00 0.03 0.03 95 1005.6
20260507075133 7 339 0.0 3.2 0.00 0.03 0.03 95 1005.5
20260507074630 7 351 4.8 4.8 0.00 0.03 0.03 95 1005.3
20260507074129 7 319 4.8 8.0 0.00 0.03 0.03 94 1005.5
20260507073625 7 314 3.2 4.8 0.00 0.03 0.03 94 1005.3
20260507073121 7 316 3.2 8.0 0.00 0.03 0.03 94 1005.5
20260507072619 7 329 4.8 8.0 0.00 0.03 0.03 93 1005.5
20260507072116 7 333 6.4 11.3 0.00 0.03 0.03 94 1005.2
20260507071613 7 330 3.2 4.8 0.00 0.03 0.03 94 1005.5
20260507071109 8 305 8.0 11.3 0.00 0.03 0.03 94 1005.4
20260507070606 8 281 6.4 8.0 0.00 0.03 0.03 95 1005.3
20260507070058 8 312 4.8 8.0 0.00 0.03 0.03 96 1005.6
20260507065554 8 307 8.0 11.3 0.00 0.03 0.03 96 1005.3
20260507065051 8 312 6.4 8.0 0.00 0.03 0.03 98 1005.1
20260507064549 8 326 1.6 4.8 0.00 0.03 0.03 98 1005.0
20260507064048 8 318 3.2 4.8 0.00 0.03 0.03 98 1005.1
20260507063544 8 316 4.8 4.8 0.00 0.03 0.03 98 1004.8
20260507063042 8 341 3.2 3.2 0.00 0.03 0.03 98 1005.0
20260507062538 8 341 0.0 0.0 0.00 0.03 0.03 98 1004.8
20260507062036 8 341 0.0 0.0 0.00 0.03 0.03 98 1004.8
20260507061533 8 341 0.0 3.2 0.00 0.03 0.03 98 1004.8
20260507061031 8 341 3.2 4.8 0.00 0.03 0.03 98 1004.7
20260507060529 8 343 1.6 3.2 0.00 0.03 0.03 98 1004.7
20260507060025 8 344 1.6 3.2 0.00 0.03 0.03 98 1004.7
20260507055520 8 344 0.0 3.2 0.00 0.03 0.03 98 1004.6
20260507055016 8 347 3.2 3.2 0.00 0.03 0.03 98 1004.4
20260507054513 8 348 1.6 3.2 0.00 0.03 0.03 98 1004.5
20260507054010 8 348 1.6 3.2 0.00 0.03 0.03 98 1004.6
20260507053508 8 358 4.8 4.8 0.00 0.03 0.03 98 1004.3
20260507053006 8 351 3.2 4.8 0.00 0.03 0.03 98 1004.4
20260507052504 8 8 3.2 4.8 0.00 0.03 0.03 98 1004.4
20260507052000 8 348 3.2 4.8 0.00 0.03 0.03 98 1004.7
20260507051458 8 350 0.0 3.2 0.00 0.03 0.03 98 1004.1
20260507050954 8 348 0.0 0.0 0.00 0.03 0.03 98 1004.3
20260507050450 8 2 0.0 3.2 0.00 0.03 0.03 98 1004.4
20260507045948 8 43 3.2 8.0 0.00 0.03 0.03 98 1004.2
20260507045444 8 330 6.4 8.0 0.00 0.03 0.03 98 1004.4
20260507044942 8 314 6.4 8.0 0.00 0.03 0.03 98 1004.3
20260507044438 9 40 1.6 8.0 0.00 0.03 0.03 98 1004.3
20260507043934 9 20 1.6 4.8 0.00 0.03 0.03 98 1004.5
20260507043431 10 323 6.4 8.0 0.18 0.03 0.03 98 1004.3
20260507042927 10 5 3.2 4.8 0.18 0.03 0.03 98 1004.6
20260507042424 10 352 4.8 11.3 0.00 0.00 0.00 98 1004.2
20260507041919 10 329 11.3 19.3 0.00 0.00 0.00 98 1004.1
20260507041416 10 324 6.4 14.5 0.00 0.00 0.00 98 1004.5
20260507040914 11 71 1.6 8.0 0.13 0.00 0.00 98 1004.3
20260507040409 11 27 0.0 3.2 0.13 0.00 0.00 98 1004.5
20260507035905 11 22 0.0 3.2 0.18 1.27 1.27 98 1004.4
20260507035402 11 43 0.0 4.8 0.79 1.27 1.27 98 1004.3
20260507034859 11 334 4.8 11.3 0.48 1.22 1.22 98 1004.3
20260507034356 11 350 3.2 4.8 0.00 1.14 1.14 98 1004.2
20260507033854 11 345 8.0 11.3 0.00 1.14 1.14 98 1003.9
20260507033352 12 305 6.4 8.0 0.18 1.14 1.14 98 1003.7
20260507032848 12 309 3.2 8.0 0.18 1.14 1.14 98 1003.4
20260507032345 12 301 4.8 4.8 0.00 1.12 1.12 98 1003.5
20260507031841 12 319 4.8 4.8 0.00 1.12 1.12 98 1003.5
20260507031338 12 133 3.2 3.2 0.00 1.12 1.12 98 1003.3
20260507030834 12 134 0.0 3.2 0.00 1.12 1.12 98 1003.4
20260507030332 12 133 0.0 3.2 0.13 1.12 1.12 98 1003.4
20260507025829 12 131 1.6 3.2 0.00 1.09 1.09 98 1003.4
20260507025326 12 131 0.0 3.2 0.00 1.09 1.09 98 1003.4
20260507024824 12 106 0.0 0.0 0.00 1.09 1.09 98 1003.3
20260507024321 11 106 0.0 0.0 0.00 1.09 1.09 98 1003.3
20260507023817 11 106 0.0 0.0 0.00 1.09 1.09 98 1003.4
20260507023313 11 106 0.0 0.0 0.00 1.09 1.09 98 1003.5
20260507022811 11 106 0.0 0.0 0.00 1.09 1.09 98 1003.4
20260507022307 11 106 0.0 0.0 0.00 1.09 1.09 98 1003.4
20260507021803 11 106 0.0 3.2 0.00 1.09 1.09 98 1003.4
20260507021259 11 105 0.0 3.2 0.00 1.09 1.09 98 1003.4
20260507020757 11 105 0.0 3.2 0.00 1.09 1.09 98 1003.3
20260507020253 11 105 0.0 3.2 0.00 1.09 1.09 98 1003.4
20260507015751 11 105 0.0 3.2 0.00 1.09 1.09 98 1003.3
20260507015248 11 105 0.0 3.2 0.00 1.09 1.09 98 1003.3